Baker City, OR

6:40 PM PST on January 21, 2017 (GMT -0800)
Baker

Weather History for KBKE - January, 2013

Change the Weather History Date:

Wednesday, January 30, 2013

  Actual Average Record
Temperature  
Mean Temperature 38 °F 26 °F  
Max Temperature 45 °F 35 °F 54 °F (1965)
Min Temperature 30 °F 17 °F -22 °F (1979)
Degree Days  
Heating Degree Days 27 39  
Month to date heating degree days 1438 1201  
Since 1 July heating degree days 4423 4486  
Cooling Degree Days 0 0  
Month to date cooling degree days 0 0  
Year to date cooling degree days 0 0  
Moisture  
Dew Point 32 °F    
Average Humidity 83    
Maximum Humidity 100    
Minimum Humidity 65    
Precipitation  
Precipitation T in 0.03 in 0.26 in (1963)
Month to date precipitation 0.84 0.78  
Year to date precipitation 0.84 0.78  
Sea Level Pressure  
Sea Level Pressure 30.28 in    
Wind  
Wind Speed 4 mph (West)    
Max Wind Speed 15 mph    
Max Gust Speed 21 mph    
Visibility 10 miles    
Events      
T = Trace of Precipitation, MM = Missing Value Source: NWS Daily Summary

Daily Weather History Graph

Daily Weather History Graph

Search for Another Location

Airport or City:

Trip Planner

Search our weather history database for the weather conditions in past years. The results will help you decide how hot, cold, wet, or windy it might be!

Date:

Astronomy

Jan. 30, 2013 Rise Set
Actual Time 7:12 AM PST 4:57 PM PST
Civil Twilight 6:41 AM PST 5:28 PM PST
Nautical Twilight 6:06 AM PST 6:03 PM PST
Astronomical Twilight 5:31 AM PST 6:38 PM PST
Moon 9:14 PM PST (1/30) 8:30 AM PST (1/30)
Length of Visible Light 10h 47m
Length of Day
9h 44m
Waning Gibbous, 87% of the Moon is Illuminated
Jan 30
Waning Gibbous
Feb 3
Last Quarter
Feb 9
New
Feb 17
First Quarter
Feb 25
Full

Hourly Weather History & Observations

Time (PST) Temp. Windchill Dew Point Humidity Pressure Visibility Wind Dir Wind Speed Gust Speed Precip Events Conditions
12:53 AM 35.1 °F 31.0 °F 30.9 °F 85% 30.24 in 10.0 mi South 4.6 mph - N/A   Mostly Cloudy
1:53 AM 37.0 °F 30.4 °F 30.0 °F 76% 30.25 in 10.0 mi West 9.2 mph - N/A   Overcast
2:53 AM 36.0 °F 28.5 °F 30.0 °F 79% 30.25 in 10.0 mi NNW 10.4 mph - N/A   Clear
3:53 AM 36.0 °F 29.6 °F 30.0 °F 79% 30.27 in 10.0 mi WNW 8.1 mph - N/A   Overcast
4:01 AM 37.4 °F 32.8 °F 30.2 °F 75% 30.21 in 10.0 mi Variable 5.8 mph - N/A   Overcast
4:26 AM 37.4 °F - 30.2 °F 75% 30.21 in 10.0 mi Calm Calm - N/A   Overcast
4:53 AM 34.0 °F 28.0 °F 30.0 °F 85% 30.27 in 10.0 mi SSW 6.9 mph - N/A   Overcast
5:05 AM 35.6 °F - 30.2 °F 81% 30.21 in 10.0 mi Calm Calm - N/A   Overcast
5:53 AM 34.0 °F 31.0 °F 30.0 °F 85% 30.27 in 10.0 mi West 3.5 mph - N/A   Scattered Clouds
6:53 AM 30.0 °F 23.2 °F 28.0 °F 92% 30.27 in 10.0 mi East 6.9 mph - N/A   Partly Cloudy
7:33 AM 30.2 °F 22.6 °F 28.4 °F 93% 30.21 in 10.0 mi SSE 8.1 mph - N/A   Mostly Cloudy
7:53 AM 33.1 °F 25.5 °F 30.0 °F 89% 30.29 in 10.0 mi South 9.2 mph - N/A   Overcast
8:53 AM 36.0 °F 32.1 °F 30.9 °F 82% 30.28 in 10.0 mi SW 4.6 mph - N/A   Mostly Cloudy
9:26 AM 37.4 °F - 33.8 °F 87% 30.23 in 10.0 mi Calm Calm - N/A   Scattered Clouds
9:53 AM 39.0 °F 35.7 °F 33.1 °F 79% 30.29 in 10.0 mi East 4.6 mph - N/A   Partly Cloudy
10:53 AM 43.0 °F - 34.0 °F 71% 30.30 in 10.0 mi Calm Calm - N/A   Clear
11:53 AM 43.0 °F - 33.1 °F 68% 30.29 in 10.0 mi Calm Calm - N/A   Clear
12:53 PM 44.1 °F - 33.1 °F 65% 30.28 in 10.0 mi Calm Calm - N/A   Clear
1:53 PM 45.0 °F 41.8 °F 34.0 °F 65% 30.27 in 10.0 mi NNW 5.8 mph - N/A   Partly Cloudy
2:53 PM 45.0 °F 43.5 °F 35.1 °F 68% 30.28 in 10.0 mi NW 3.5 mph - N/A   Mostly Cloudy
3:16 PM 44.6 °F 40.7 °F 35.6 °F 71% 30.24 in 10.0 mi NNW 6.9 mph - N/A   Partly Cloudy
3:53 PM 43.0 °F 37.2 °F 34.0 °F 71% 30.29 in 10.0 mi NNW 10.4 mph - N/A   Scattered Clouds
4:53 PM 37.9 °F - 32.0 °F 79% 30.32 in 10.0 mi Calm Calm - N/A   Mostly Cloudy
5:04 PM 37.4 °F - 32.0 °F 81% 30.26 in 10.0 mi Calm Calm - N/A   Scattered Clouds
5:18 PM 39.2 °F - 32.0 °F 75% 30.26 in 10.0 mi Calm Calm - N/A   Mostly Cloudy
5:53 PM 36.0 °F - 32.0 °F 86% 30.33 in 10.0 mi Calm Calm - N/A   Overcast
6:53 PM 37.9 °F 35.5 °F 33.1 °F 83% 30.35 in 10.0 mi NNE 3.5 mph - N/A   Overcast
7:35 PM 37.4 °F 34.9 °F 33.8 °F 87% 30.28 in 10.0 mi West 3.5 mph - N/A   Overcast
7:53 PM 35.1 °F - 33.1 °F 92% 30.35 in 10.0 mi Calm Calm - N/A   Overcast
8:36 PM 33.8 °F - 33.8 °F 100% 30.29 in 10.0 mi Calm Calm - N/A   Overcast
8:53 PM 35.1 °F - 33.1 °F 92% 30.35 in 10.0 mi Calm Calm - N/A   Overcast
9:07 PM 35.6 °F - 33.8 °F 93% 30.29 in 10.0 mi Calm Calm - N/A   Overcast
9:53 PM 34.0 °F - 33.1 °F 96% 30.35 in 10.0 mi Calm Calm - 0.00 in   Overcast
10:53 PM 34.0 °F 31.0 °F 33.1 °F 96% 30.35 in 10.0 mi SSE 3.5 mph - N/A   Overcast
11:38 PM 35.6 °F - 33.8 °F 93% 30.30 in 10.0 mi Calm Calm - N/A   Overcast
11:50 PM 35.6 °F - 33.8 °F 93% 30.30 in 10.0 mi Calm Calm - N/A   Overcast
11:53 PM 34.0 °F 31.0 °F 33.1 °F 96% 30.35 in 10.0 mi WSW 3.5 mph - N/A   Overcast